Back to catalog

SL-14 DEB

AlivePO
NORAD 69735·DEBRIS·🇨🇳 China

Launched Jan 17, 1986 from Plesetsk Cosmodrome

Loading…

Next Passes (next 24 hours)

TLE

FreshSource: Space-Track

Epoch: Sep 14, 2026, 11:47 UTC

1 69735U 86006D   26257.49127467  .00009737  00000-0  87246-3 0  9998
2 69735  82.5419  85.5084 0088710  25.0996 335.4495 14.92655265 68884

Track SL-14 DEB in real time with AllMySat

Download on the App Store